QPF
0.07 0.11 0.13 0.14 0.16 0.20 0.21 0.18 0.13 0.12 0.09 0.07 0.06 0.04 0.03 0.02 0.02 0.02 0.03 0.01 0.01 0.01 0.01 0.03 0.04 0.05 0.04 0.05 0.05 0.04 0.03 0.03 0.03 0.04 0.03 0.03 0.03 0.03 0.03 0.03 0.03 0.03 0.02
0.06 0.07 0.10 0.12 0.13 0.14 0.17 0.16 0.13 0.14 0.11 0.08 0.05 0.05 0.04 0.03 0.02 0.02 0.02 0.02 0.01 0.00 0.01 0.02 0.04 0.05 0.05 0.04 0.04 0.03 0.02 0.02 0.03 0.03 0.02 0.02 0.02 0.03 0.03 0.03 0.02 0.02 0.02
0.05 0.06 0.10 0.11 0.12 0.10 0.11 0.12 0.10 0.15 0.13 0.11 0.09 0.06 0.04 0.04 0.02 0.02 0.03 0.02 0.01 0.01 0.01 0.02 0.03 0.05 0.05 0.05 0.04 0.03 0.02 0.02 0.02 0.03 0.02 0.01 0.02 0.02 0.02 0.03 0.03 0.02 0.02
0.03 0.05 0.07 0.09 0.12 0.14 0.13 0.12 0.13 0.17 0.17 0.15 0.14 0.10 0.07 0.05 0.04 0.03 0.04 0.04 0.02 0.02 0.01 0.01 0.02 0.02 0.04 0.05 0.04 0.03 0.03 0.02 0.02 0.02 0.01 0.01 0.01 0.01 0.01 0.02 0.03 0.02 0.02
0.05 0.06 0.06 0.06 0.09 0.15 0.15 0.11 0.13 0.14 0.17 0.18 0.17 0.16 0.11 0.07 0.05 0.04 0.05 0.06 0.05 0.03 0.03 0.01 0.01 0.01 0.02 0.03 0.04 0.03 0.03 0.03 0.02 0.02 0.01 0.01 0.01 0.01 0.01 0.01 0.01 0.01 0.01
0.05 0.06 0.05 0.05 0.08 0.13 0.15 0.13 0.16 0.17 0.16 0.17 0.17 0.18 0.17 0.13 0.10 0.05 0.03 0.04 0.05 0.06 0.05 0.04 0.02 0.01 0.01 0.02 0.04 0.04 0.03 0.03 0.02 0.01 0.01 0.01 0.00 0.01 0.01 0.01 0.01 0.01 0.01
0.04 0.05 0.06 0.06 0.08 0.10 0.13 0.13 0.17 0.19 0.19 0.19 0.20 0.21 0.18 0.15 0.12 0.11 0.07 0.05 0.05 0.05 0.06 0.07 0.06 0.04 0.02 0.01 0.01 0.02 0.03 0.02 0.02 0.02 0.01 0.01 0.01 0.01 0.00 0.01 0.01 0.01 0.02
0.03 0.03 0.03 0.05 0.07 0.08 0.09 0.12 0.15 0.17 0.15 0.17 0.19 0.23 0.22 0.20 0.13 0.09 0.10 0.10 0.08 0.06 0.06 0.06 0.06 0.06 0.04 0.03 0.02 0.01 0.02 0.04 0.03 0.02 0.02 0.02 0.01 0.01 0.00 0.01 0.00 0.01 0.02
0.04 0.03 0.03 0.05 0.05 0.06 0.07 0.10 0.12 0.14 0.12 0.14 0.17 0.21 0.21 0.20 0.18 0.11 0.09 0.12 0.11 0.08 0.07 0.06 0.06 0.06 0.05 0.06 0.07 0.03 0.01 0.02 0.05 0.04 0.03 0.03 0.02 0.02 0.01 0.01 0.01 0.01 0.01
0.04 0.04 0.04 0.04 0.05 0.06 0.06 0.07 0.10 0.12 0.12 0.11 0.13 0.15 0.16 0.18 0.17 0.16 0.11 0.09 0.10 0.09 0.09 0.08 0.06 0.07 0.06 0.07 0.10 0.07 0.03 0.02 0.03 0.03 0.03 0.04 0.04 0.02 0.01 0.01 0.01 0.01 0.01
0.06 0.04 0.04 0.05 0.06 0.06 0.06 0.07 0.09 0.11 0.12 0.12 0.12 0.12 0.12 0.13 0.11 0.13 0.14 0.12 0.12 0.10 0.10 0.12 0.11 0.09 0.08 0.10 0.15 0.10 0.07 0.03 0.02 0.03 0.04 0.05 0.06 0.04 0.02 0.01 0.01 0.01 0.02
0.06 0.04 0.04 0.05 0.05 0.06 0.06 0.06 0.07 0.08 0.11 0.13 0.15 0.16 0.14 0.13 0.11 0.11 0.11 0.13 0.15 0.13 0.11 0.11 0.13 0.14 0.14 0.13 0.11 0.11 0.08 0.04 0.02 0.02 0.03 0.04 0.05 0.05 0.05 0.04 0.03 0.02 0.03
0.07 0.05 0.05 0.04 0.04 0.05 0.06 0.07 0.08 0.09 0.09 0.10 0.11 0.14 0.15 0.14 0.16 0.15 0.14 0.14 0.14 0.15 0.17 0.16 0.14 0.15 0.13 0.14 0.13 0.11 0.09 0.06 0.03 0.01 0.01 0.02 0.02 0.04 0.04 0.05 0.06 0.06 0.05
0.05 0.05 0.05 0.04 0.04 0.05 0.06 0.07 0.07 0.07 0.08 0.11 0.11 0.12 0.10 0.10 0.13 0.14 0.15 0.17 0.13 0.12 0.15 0.17 0.18 0.14 0.12 0.14 0.14 0.13 0.06 0.06 0.04 0.02 0.01 0.01 0.01 0.01 0.02 0.03 0.06 0.07 0.07
0.02 0.03 0.04 0.04 0.05 0.06 0.07 0.07 0.07 0.07 0.09 0.10 0.10 0.10 0.09 0.10 0.11 0.13 0.14 0.15 0.15 0.13 0.11 0.12 0.15 0.14 0.15 0.15 0.16 0.11 0.08 0.07 0.05 0.03 0.03 0.02 0.02 0.01 0.02 0.02 0.03 0.03 0.05
0.02 0.03 0.04 0.05 0.06 0.05 0.06 0.07 0.08 0.09 0.09 0.08 0.08 0.09 0.08 0.09 0.10 0.11 0.12 0.11 0.12 0.12 0.12 0.11 0.10 0.10 0.13 0.16 0.19 0.14 0.10 0.10 0.07 0.04 0.03 0.03 0.03 0.02 0.02 0.02 0.02 0.02 0.03
0.03 0.03 0.02 0.03 0.04 0.04 0.06 0.06 0.06 0.06 0.06 0.06 0.06 0.06 0.07 0.08 0.09 0.10 0.11 0.11 0.12 0.13 0.11 0.11 0.09 0.07 0.10 0.14 0.15 0.13 0.12 0.12 0.08 0.04 0.03 0.03 0.03 0.02 0.02 0.02 0.03 0.03 0.03
0.03 0.03 0.03 0.03 0.05 0.04 0.05 0.05 0.04 0.03 0.04 0.04 0.04 0.05 0.05 0.06 0.07 0.08 0.09 0.08 0.10 0.12 0.12 0.12 0.10 0.09 0.09 0.10 0.12 0.13 0.11 0.10 0.09 0.06 0.04 0.03 0.03 0.03 0.03 0.02 0.02 0.02 0.02
0.04 0.04 0.04 0.04 0.05 0.06 0.07 0.06 0.05 0.04 0.05 0.05 0.04 0.03 0.04 0.05 0.06 0.06 0.06 0.06 0.07 0.08 0.11 0.11 0.08 0.08 0.09 0.09 0.10 0.11 0.10 0.11 0.10 0.09 0.08 0.05 0.04 0.04 0.04 0.04 0.03 0.03 0.04
0.03 0.04 0.04 0.03 0.04 0.05 0.05 0.06 0.07 0.06 0.05 0.05 0.04 0.04 0.05 0.05 0.06 0.06 0.06 0.06 0.06 0.07 0.09 0.10 0.08 0.07 0.06 0.08 0.10 0.11 0.11 0.10 0.10 0.09 0.08 0.07 0.07 0.06 0.06 0.05 0.04 0.03 0.04
0.03 0.03 0.03 0.03 0.04 0.04 0.04 0.05 0.06 0.05 0.04 0.05 0.05 0.06 0.06 0.05 0.05 0.06 0.06 0.06 0.07 0.07 0.08 0.08 0.08 0.08 0.07 0.07 0.08 0.08 0.10 0.11 0.11 0.09 0.08 0.08 0.08 0.07 0.06 0.07 0.07 0.06 0.05
0.03 0.02 0.02 0.04 0.05 0.03 0.02 0.04 0.06 0.05 0.03 0.03 0.05 0.06 0.07 0.06 0.05 0.06 0.07 0.07 0.07 0.07 0.07 0.08 0.08 0.08 0.08 0.08 0.08 0.09 0.10 0.10 0.12 0.10 0.07 0.08 0.08 0.08 0.08 0.08 0.09 0.08 0.07
0.02 0.01 0.01 0.02 0.03 0.02 0.01 0.01 0.03 0.05 0.05 0.04 0.05 0.05 0.06 0.05 0.05 0.05 0.06 0.07 0.08 0.08 0.08 0.09 0.09 0.08 0.09 0.10 0.12 0.12 0.12 0.11 0.11 0.13 0.11 0.11 0.11 0.10 0.09 0.09 0.10 0.10 0.09
0.02 0.01 0.01 0.01 0.01 0.01 0.01 0.01 0.02 0.05 0.06 0.05 0.06 0.06 0.06 0.06 0.04 0.05 0.05 0.06 0.07 0.05 0.05 0.07 0.09 0.10 0.12 0.13 0.16 0.17 0.17 0.15 0.15 0.15 0.14 0.14 0.13 0.12 0.11 0.11 0.12 0.12 0.10
0.02 0.01 0.01 0.01 0.00 0.00 0.01 0.01 0.02 0.03 0.05 0.05 0.06 0.06 0.06 0.05 0.04 0.05 0.06 0.06 0.06 0.06 0.06 0.07 0.10 0.12 0.16 0.18 0.18 0.18 0.18 0.17 0.18 0.16 0.12 0.10 0.10 0.11 0.13 0.14 0.14 0.14 0.12
0.02 0.01 0.01 0.00 0.00 0.00 0.00 0.01 0.02 0.03 0.04 0.03 0.05 0.06 0.04 0.03 0.03 0.05 0.07 0.08 0.06 0.07 0.08 0.07 0.07 0.09 0.13 0.17 0.19 0.17 0.16 0.15 0.14 0.15 0.12 0.10 0.09 0.09 0.11 0.12 0.12 0.11 0.11
MSLP
1012.01 1011.93 1011.83 1011.77 1011.75 1011.79 1011.90 1012.03 1012.17 1012.27 1012.30 1012.23 1012.09 1011.90 1011.72 1011.62 1011.62 1011.78 1012.09 1012.50 1012.98 1013.47 1013.90 1014.25 1014.51 1014.68 1014.81 1014.94 1015.10 1015.31 1015.60 1015.94 1016.31 1016.69 1017.05 1017.38 1017.66 1017.91 1018.12 1018.32 1018.50 1018.66 1018.82
1011.88 1011.74 1011.61 1011.52 1011.48 1011.52 1011.62 1011.76 1011.91 1012.03 1012.07 1012.02 1011.89 1011.71 1011.53 1011.41 1011.39 1011.52 1011.80 1012.19 1012.67 1013.16 1013.63 1014.04 1014.37 1014.62 1014.82 1015.01 1015.21 1015.45 1015.73 1016.06 1016.41 1016.77 1017.12 1017.45 1017.75 1018.02 1018.28 1018.51 1018.73 1018.94 1019.12
1011.84 1011.67 1011.52 1011.40 1011.35 1011.37 1011.47 1011.61 1011.77 1011.90 1011.96 1011.93 1011.82 1011.65 1011.47 1011.33 1011.28 1011.35 1011.56 1011.90 1012.32 1012.79 1013.27 1013.71 1014.10 1014.43 1014.72 1014.98 1015.25 1015.53 1015.83 1016.15 1016.48 1016.81 1017.14 1017.46 1017.76 1018.06 1018.34 1018.63 1018.90 1019.14 1019.36
1011.90 1011.71 1011.54 1011.41 1011.34 1011.35 1011.43 1011.57 1011.72 1011.85 1011.93 1011.92 1011.84 1011.69 1011.51 1011.35 1011.26 1011.27 1011.40 1011.64 1011.98 1012.39 1012.83 1013.27 1013.70 1014.10 1014.47 1014.83 1015.17 1015.51 1015.85 1016.18 1016.51 1016.82 1017.13 1017.42 1017.72 1018.03 1018.34 1018.66 1018.97 1019.26 1019.51
1012.02 1011.82 1011.64 1011.49 1011.40 1011.39 1011.45 1011.56 1011.70 1011.83 1011.91 1011.93 1011.88 1011.76 1011.61 1011.45 1011.33 1011.28 1011.32 1011.45 1011.68 1011.99 1012.35 1012.77 1013.20 1013.65 1014.09 1014.54 1014.97 1015.39 1015.78 1016.15 1016.49 1016.79 1017.08 1017.36 1017.65 1017.95 1018.28 1018.62 1018.96 1019.28 1019.56
1012.18 1011.96 1011.76 1011.60 1011.49 1011.44 1011.46 1011.54 1011.65 1011.77 1011.86 1011.91 1011.90 1011.83 1011.73 1011.59 1011.46 1011.37 1011.32 1011.35 1011.46 1011.64 1011.91 1012.25 1012.66 1013.12 1013.62 1014.13 1014.65 1015.15 1015.62 1016.04 1016.40 1016.72 1017.01 1017.29 1017.57 1017.86 1018.19 1018.54 1018.89 1019.23 1019.53
1012.32 1012.09 1011.87 1011.69 1011.55 1011.47 1011.45 1011.48 1011.55 1011.64 1011.74 1011.82 1011.86 1011.86 1011.82 1011.74 1011.64 1011.52 1011.42 1011.35 1011.34 1011.40 1011.54 1011.79 1012.13 1012.57 1013.08 1013.65 1014.23 1014.81 1015.34 1015.83 1016.24 1016.60 1016.91 1017.19 1017.47 1017.77 1018.08 1018.43 1018.78 1019.12 1019.42
1012.42 1012.17 1011.94 1011.74 1011.57 1011.45 1011.38 1011.36 1011.39 1011.45 1011.54 1011.65 1011.75 1011.82 1011.87 1011.86 1011.81 1011.71 1011.59 1011.45 1011.34 1011.28 1011.30 1011.43 1011.68 1012.06 1012.54 1013.12 1013.74 1014.37 1014.97 1015.52 1016.00 1016.40 1016.75 1017.06 1017.36 1017.66 1017.97 1018.30 1018.64 1018.97 1019.26
1012.47 1012.20 1011.96 1011.75 1011.56 1011.41 1011.29 1011.22 1011.19 1011.22 1011.30 1011.42 1011.56 1011.71 1011.84 1011.93 1011.95 1011.90 1011.78 1011.61 1011.43 1011.27 1011.18 1011.18 1011.33 1011.62 1012.05 1012.59 1013.20 1013.86 1014.50 1015.10 1015.64 1016.11 1016.52 1016.87 1017.20 1017.52 1017.83 1018.16 1018.48 1018.79 1019.06
1012.47 1012.20 1011.95 1011.73 1011.53 1011.35 1011.20 1011.07 1010.99 1010.98 1011.02 1011.14 1011.31 1011.52 1011.72 1011.89 1012.00 1012.01 1011.93 1011.77 1011.56 1011.33 1011.15 1011.06 1011.09 1011.28 1011.62 1012.09 1012.66 1013.30 1013.96 1014.59 1015.18 1015.71 1016.17 1016.59 1016.96 1017.31 1017.65 1017.98 1018.29 1018.58 1018.85
1012.43 1012.17 1011.93 1011.72 1011.52 1011.33 1011.14 1010.97 1010.83 1010.75 1010.75 1010.84 1011.01 1011.23 1011.48 1011.72 1011.90 1011.99 1011.97 1011.85 1011.65 1011.40 1011.17 1011.00 1010.95 1011.03 1011.27 1011.66 1012.16 1012.75 1013.38 1014.02 1014.63 1015.20 1015.72 1016.19 1016.62 1017.02 1017.39 1017.73 1018.05 1018.34 1018.60
1012.37 1012.12 1011.91 1011.72 1011.54 1011.34 1011.12 1010.91 1010.71 1010.56 1010.49 1010.52 1010.64 1010.85 1011.11 1011.38 1011.62 1011.78 1011.84 1011.78 1011.63 1011.41 1011.18 1010.98 1010.87 1010.88 1011.02 1011.31 1011.73 1012.24 1012.81 1013.42 1014.03 1014.62 1015.18 1015.70 1016.18 1016.63 1017.04 1017.41 1017.75 1018.05 1018.32
1012.30 1012.08 1011.90 1011.74 1011.57 1011.38 1011.15 1010.89 1010.63 1010.40 1010.24 1010.18 1010.22 1010.37 1010.60 1010.88 1011.14 1011.36 1011.49 1011.52 1011.45 1011.30 1011.12 1010.95 1010.82 1010.79 1010.88 1011.08 1011.40 1011.82 1012.31 1012.86 1013.43 1014.01 1014.58 1015.14 1015.66 1016.15 1016.60 1017.02 1017.38 1017.71 1018.01
1012.22 1012.04 1011.90 1011.77 1011.62 1011.43 1011.19 1010.89 1010.57 1010.26 1009.99 1009.82 1009.77 1009.83 1009.99 1010.23 1010.49 1010.74 1010.94 1011.06 1011.10 1011.06 1010.97 1010.87 1010.78 1010.76 1010.81 1010.96 1011.20 1011.53 1011.93 1012.40 1012.91 1013.45 1014.01 1014.56 1015.10 1015.62 1016.11 1016.56 1016.97 1017.33 1017.66
1012.16 1012.00 1011.90 1011.79 1011.67 1011.49 1011.23 1010.90 1010.52 1010.13 1009.77 1009.49 1009.31 1009.26 1009.33 1009.50 1009.74 1009.99 1010.24 1010.44 1010.59 1010.67 1010.71 1010.72 1010.72 1010.74 1010.81 1010.93 1011.12 1011.38 1011.70 1012.08 1012.51 1012.99 1013.50 1014.03 1014.56 1015.09 1015.60 1016.08 1016.52 1016.92 1017.29
1012.11 1011.99 1011.90 1011.82 1011.70 1011.52 1011.26 1010.90 1010.48 1010.02 1009.58 1009.19 1008.91 1008.74 1008.71 1008.79 1008.97 1009.21 1009.47 1009.74 1009.98 1010.18 1010.35 1010.48 1010.60 1010.71 1010.83 1010.97 1011.14 1011.35 1011.60 1011.90 1012.26 1012.66 1013.11 1013.59 1014.09 1014.60 1015.11 1015.60 1016.06 1016.50 1016.91
1012.11 1012.00 1011.92 1011.84 1011.73 1011.54 1011.27 1010.90 1010.46 1009.96 1009.46 1009.00 1008.62 1008.35 1008.21 1008.19 1008.29 1008.48 1008.73 1009.02 1009.32 1009.62 1009.90 1010.15 1010.39 1010.60 1010.80 1010.99 1011.18 1011.38 1011.60 1011.85 1012.14 1012.47 1012.85 1013.27 1013.73 1014.20 1014.68 1015.16 1015.63 1016.09 1016.53
1012.16 1012.04 1011.96 1011.87 1011.75 1011.56 1011.29 1010.92 1010.47 1009.96 1009.43 1008.93 1008.48 1008.13 1007.90 1007.78 1007.78 1007.89 1008.09 1008.36 1008.67 1009.01 1009.36 1009.72 1010.05 1010.37 1010.66 1010.92 1011.16 1011.39 1011.61 1011.84 1012.09 1012.38 1012.70 1013.06 1013.46 1013.89 1014.33 1014.79 1015.25 1015.71 1016.16
1012.25 1012.13 1012.02 1011.92 1011.78 1011.58 1011.31 1010.95 1010.52 1010.03 1009.50 1008.99 1008.51 1008.10 1007.78 1007.57 1007.47 1007.47 1007.58 1007.78 1008.05 1008.38 1008.76 1009.16 1009.57 1009.97 1010.35 1010.70 1011.01 1011.30 1011.56 1011.80 1012.05 1012.32 1012.61 1012.93 1013.28 1013.66 1014.07 1014.49 1014.93 1015.37 1015.83
1012.38 1012.23 1012.10 1011.97 1011.81 1011.61 1011.34 1011.00 1010.60 1010.14 1009.65 1009.15 1008.66 1008.22 1007.84 1007.54 1007.32 1007.21 1007.19 1007.28 1007.46 1007.74 1008.08 1008.48 1008.93 1009.38 1009.84 1010.27 1010.68 1011.04 1011.37 1011.67 1011.95 1012.24 1012.52 1012.83 1013.16 1013.50 1013.87 1014.26 1014.67 1015.10 1015.55
1012.50 1012.33 1012.17 1012.01 1011.82 1011.61 1011.35 1011.04 1010.67 1010.26 1009.82 1009.35 1008.88 1008.42 1007.99 1007.61 1007.29 1007.04 1006.89 1006.84 1006.90 1007.07 1007.35 1007.71 1008.15 1008.64 1009.15 1009.66 1010.15 1010.61 1011.03 1011.41 1011.76 1012.09 1012.41 1012.73 1013.06 1013.39 1013.75 1014.11 1014.50 1014.91 1015.34
1012.59 1012.39 1012.20 1012.01 1011.80 1011.58 1011.32 1011.03 1010.71 1010.34 1009.94 1009.52 1009.07 1008.60 1008.14 1007.69 1007.27 1006.91 1006.63 1006.44 1006.36 1006.42 1006.60 1006.90 1007.31 1007.80 1008.34 1008.92 1009.49 1010.04 1010.55 1011.03 1011.47 1011.87 1012.25 1012.61 1012.97 1013.32 1013.67 1014.03 1014.41 1014.81 1015.23
1012.61 1012.39 1012.17 1011.95 1011.73 1011.49 1011.24 1010.97 1010.67 1010.34 1009.99 1009.60 1009.17 1008.71 1008.22 1007.72 1007.22 1006.76 1006.36 1006.05 1005.86 1005.80 1005.89 1006.12 1006.49 1006.97 1007.53 1008.14 1008.78 1009.41 1010.02 1010.58 1011.11 1011.60 1012.05 1012.47 1012.87 1013.26 1013.64 1014.02 1014.40 1014.80 1015.21
1012.55 1012.32 1012.08 1011.84 1011.60 1011.35 1011.10 1010.84 1010.56 1010.26 1009.93 1009.57 1009.15 1008.70 1008.19 1007.66 1007.11 1006.58 1006.10 1005.70 1005.42 1005.28 1005.30 1005.47 1005.80 1006.27 1006.83 1007.47 1008.15 1008.84 1009.51 1010.15 1010.75 1011.32 1011.84 1012.33 1012.79 1013.22 1013.64 1014.05 1014.46 1014.87 1015.29
1012.42 1012.18 1011.94 1011.69 1011.44 1011.19 1010.94 1010.68 1010.42 1010.13 1009.82 1009.46 1009.06 1008.60 1008.10 1007.55 1006.98 1006.41 1005.89 1005.45 1005.12 1004.93 1004.91 1005.05 1005.36 1005.81 1006.37 1007.01 1007.71 1008.42 1009.12 1009.81 1010.46 1011.07 1011.65 1012.19 1012.70 1013.19 1013.66 1014.11 1014.55 1014.99 1015.43
1012.25 1012.02 1011.78 1011.54 1011.29 1011.05 1010.80 1010.55 1010.29 1010.01 1009.70 1009.36 1008.96 1008.51 1008.00 1007.46 1006.88 1006.31 1005.79 1005.34 1005.01 1004.82 1004.79 1004.92 1005.22 1005.65 1006.20 1006.83 1007.52 1008.22 1008.92 1009.61 1010.26 1010.90 1011.50 1012.07 1012.62 1013.16 1013.67 1014.16 1014.64 1015.11 1015.57
Thickness
5728 5730 5733 5735 5737 5739 5740 5742 5745 5747 5751 5754 5757 5761 5763 5765 5766 5765 5763 5762 5760 5759 5758 5757 5756 5755 5754 5753 5752 5751 5751 5750 5750 5750 5749 5749 5749 5749 5748 5748 5749 5749 5749
5722 5723 5726 5728 5731 5733 5735 5738 5741 5743 5746 5750 5753 5757 5760 5763 5764 5764 5762 5761 5760 5758 5757 5756 5755 5754 5753 5752 5752 5751 5750 5749 5749 5748 5748 5748 5747 5747 5747 5746 5746 5746 5746
5714 5716 5718 5721 5724 5727 5730 5734 5736 5738 5741 5744 5747 5751 5755 5758 5760 5761 5761 5760 5759 5758 5757 5756 5755 5754 5753 5752 5751 5750 5749 5748 5748 5747 5747 5746 5746 5745 5745 5745 5744 5744 5744
5705 5709 5711 5713 5717 5720 5724 5727 5730 5731 5734 5737 5740 5744 5748 5753 5756 5759 5759 5759 5759 5757 5756 5755 5754 5754 5753 5752 5751 5750 5749 5748 5747 5746 5746 5745 5745 5745 5744 5744 5743 5743 5742
5697 5700 5703 5706 5710 5713 5717 5720 5724 5725 5726 5730 5733 5737 5741 5745 5750 5754 5756 5758 5758 5757 5756 5755 5754 5753 5752 5751 5750 5749 5748 5747 5746 5745 5745 5744 5744 5743 5743 5742 5742 5741 5741
5689 5692 5695 5699 5703 5706 5709 5712 5716 5719 5722 5724 5727 5731 5734 5738 5744 5748 5751 5755 5757 5756 5755 5754 5753 5752 5751 5751 5750 5749 5748 5747 5746 5745 5744 5743 5742 5742 5741 5741 5740 5740 5739
5683 5685 5688 5692 5695 5698 5701 5705 5708 5711 5714 5717 5717 5719 5725 5732 5736 5740 5745 5749 5752 5754 5754 5753 5752 5751 5750 5750 5749 5748 5747 5746 5745 5744 5743 5742 5741 5740 5740 5739 5738 5738 5737
5678 5681 5683 5685 5688 5691 5694 5698 5701 5702 5706 5710 5710 5708 5709 5717 5725 5734 5738 5741 5745 5748 5750 5751 5751 5750 5750 5749 5748 5747 5746 5745 5744 5743 5742 5741 5740 5739 5738 5737 5736 5736 5735
5675 5676 5678 5679 5682 5685 5687 5691 5694 5695 5697 5703 5707 5705 5703 5704 5713 5723 5730 5734 5737 5741 5744 5747 5749 5749 5749 5748 5748 5746 5745 5744 5742 5741 5741 5739 5738 5737 5736 5735 5734 5734 5733
5672 5672 5674 5675 5677 5679 5682 5685 5689 5691 5692 5694 5699 5704 5707 5709 5706 5708 5718 5725 5731 5734 5739 5742 5744 5745 5747 5747 5746 5744 5743 5742 5741 5740 5739 5737 5736 5735 5734 5733 5732 5731 5730
5669 5669 5670 5671 5673 5675 5677 5680 5683 5686 5688 5690 5692 5696 5699 5702 5705 5704 5705 5712 5720 5727 5732 5735 5737 5741 5743 5744 5743 5742 5740 5738 5738 5737 5736 5735 5734 5733 5732 5731 5730 5729 5727
5665 5666 5666 5667 5669 5670 5672 5675 5678 5680 5683 5686 5688 5691 5693 5694 5697 5699 5700 5704 5708 5716 5724 5729 5732 5734 5736 5737 5738 5738 5736 5734 5734 5733 5733 5732 5731 5730 5729 5728 5727 5726 5724
5661 5662 5662 5663 5664 5666 5668 5670 5672 5675 5678 5680 5683 5686 5689 5692 5696 5697 5696 5697 5701 5707 5714 5720 5725 5727 5729 5731 5732 5732 5731 5730 5729 5729 5729 5728 5727 5726 5726 5725 5724 5722 5721
5659 5659 5659 5660 5661 5662 5664 5666 5667 5670 5673 5675 5678 5681 5684 5688 5692 5693 5693 5692 5692 5696 5703 5709 5715 5720 5723 5724 5726 5726 5726 5725 5725 5724 5724 5724 5723 5722 5721 5720 5720 5719 5717
5659 5658 5657 5657 5658 5659 5661 5662 5662 5664 5667 5669 5672 5676 5679 5683 5687 5690 5692 5692 5688 5687 5691 5700 5705 5712 5716 5718 5719 5719 5720 5720 5719 5719 5719 5718 5718 5717 5716 5715 5714 5714 5713
5658 5656 5656 5656 5656 5657 5658 5659 5659 5661 5662 5665 5668 5671 5674 5678 5681 5685 5688 5689 5690 5688 5687 5695 5700 5705 5708 5710 5711 5711 5713 5714 5714 5713 5713 5712 5712 5712 5711 5710 5709 5708 5708
5658 5656 5656 5655 5654 5654 5655 5656 5657 5658 5659 5661 5664 5667 5669 5673 5676 5679 5682 5684 5686 5686 5684 5688 5694 5697 5699 5701 5702 5704 5706 5707 5706 5707 5707 5707 5706 5706 5705 5704 5703 5703 5702
5660 5658 5656 5654 5654 5653 5654 5654 5654 5656 5656 5658 5660 5663 5665 5669 5671 5674 5676 5679 5681 5683 5682 5681 5685 5689 5691 5694 5695 5696 5698 5699 5699 5700 5700 5700 5700 5699 5699 5698 5697 5696 5695
5661 5659 5656 5654 5653 5653 5652 5653 5653 5654 5655 5656 5658 5659 5661 5664 5665 5668 5671 5673 5676 5679 5679 5678 5679 5682 5684 5687 5687 5689 5691 5692 5692 5693 5693 5693 5693 5693 5692 5691 5690 5689 5689
5662 5659 5657 5655 5653 5652 5651 5651 5651 5652 5653 5655 5656 5657 5659 5660 5661 5663 5666 5668 5671 5671 5673 5672 5673 5674 5676 5679 5680 5680 5680 5682 5684 5685 5685 5686 5686 5685 5685 5684 5684 5682 5681
5663 5661 5658 5656 5654 5652 5650 5649 5650 5651 5652 5653 5654 5656 5657 5658 5659 5660 5662 5663 5665 5665 5666 5665 5666 5667 5669 5670 5672 5674 5674 5674 5676 5678 5678 5678 5678 5677 5677 5677 5676 5675 5674
5664 5661 5659 5657 5654 5652 5651 5650 5650 5650 5651 5652 5652 5653 5655 5656 5657 5658 5659 5660 5662 5661 5660 5660 5660 5661 5664 5667 5668 5669 5668 5668 5667 5671 5671 5670 5671 5670 5670 5670 5670 5669 5667
5665 5662 5660 5657 5655 5653 5652 5651 5651 5650 5651 5651 5652 5651 5653 5654 5653 5653 5655 5657 5657 5658 5659 5658 5657 5659 5661 5664 5664 5664 5664 5664 5665 5666 5664 5662 5663 5662 5663 5663 5663 5662 5661
5666 5663 5661 5659 5656 5655 5653 5652 5651 5651 5651 5651 5651 5651 5649 5649 5650 5650 5650 5652 5653 5654 5655 5656 5657 5658 5659 5661 5663 5663 5662 5660 5659 5659 5660 5655 5655 5655 5656 5656 5656 5655 5654
5667 5665 5663 5661 5658 5656 5654 5653 5651 5650 5650 5650 5650 5649 5648 5647 5647 5648 5648 5649 5649 5650 5652 5653 5655 5655 5656 5658 5659 5657 5655 5653 5651 5651 5653 5652 5650 5648 5647 5647 5647 5647 5646
5669 5667 5665 5663 5660 5657 5655 5653 5651 5650 5648 5647 5647 5646 5645 5645 5645 5646 5646 5646 5645 5646 5648 5649 5650 5651 5653 5654 5655 5655 5654 5651 5648 5646 5647 5647 5645 5643 5640 5640 5640 5640 5639